Simultaneous Nadir Overpasses (SNOs) Predictions

Prediction of SNOs between METOP-C and LANDSAT-8 Satellite Orbit:

Table of predicted SNOs for the next 14.0 days since TLE Epoch: 6/29/2020
Index Date (METOP-C) Time (METOP-C) Lat,Lon (METOP-C) SZA (METOP-C ) Date (LANDSAT-8) Time (LANDSAT-8) Lat,Lon (LANDSAT-8) SZA (LANDSAT-8 ) Distance(km) Time Diff (sec)
1 06/29/2020 16:10:17 -81.13, 157.40 119.97 06/29/2020 16:10:19 -81.13, 157.55 119.95 2.63 2
2 06/29/2020 17:00:55 81.15, -34.45 60.14 06/29/2020 16:59:44 81.16, -34.32 60.13 2.25 71
3 07/02/2020 10:53:58 81.13, 56.45 60.21 07/02/2020 10:55:09 81.12, 56.26 60.22 3.13 71
4 07/02/2020 11:44:38 -81.14,-135.71 119.72 07/02/2020 11:44:35 -81.14,-135.79 119.73 1.39 3
5 07/05/2020 06:28:20 81.12, 122.60 60.41 07/05/2020 06:29:25 81.11, 122.52 60.43 1.28 65
6 07/05/2020 07:19:00 -81.13, -69.57 119.53 07/05/2020 07:18:51 -81.13, -69.50 119.52 1.16 9
7 07/08/2020 02:02:42 81.12,-170.89 60.71 07/08/2020 02:03:41 81.12,-170.87 60.74 0.54 59
8 07/08/2020 02:53:21 -81.15, -2.70 119.18 07/08/2020 02:53:07 -81.15, -2.87 119.21 3.06 14
9 07/10/2020 21:37:05 81.11,-104.75 61.02 07/10/2020 21:37:58 81.11,-104.64 61.05 2.03 53
